LAOSAT 1

Last updated on Wed Sep 09 2026 00:03:01 GMT+0000 (Coordinated Universal Time)

1 41034U 15067A 26251.47055993 .00000000 00000+0 00000+0 0 9997 2 41034 0.0088 282.8183 0001926 197.6915 164.9159 1.00265409 39697
UTC large
Height (km)
Speed (km/s)
/
Latitude / Longitude
Inclination (degrees)
Orbital Period (minutes)
Azimuth
Elevation
Range (km)
Doppler Factor

Next 0 passes for location: London (51.5072 / 0.1276)

No passes found over London.
LAOSAT 1